This demonstration page uses our WeatherBlox Daily Observations layout. Learn more.

Left ArrowRight Arrow

34.74481, -87.66753

Hourly Observations for July 22, 2019

Temp ( °F °C ) Dew Point ( °F °C ) Humidity (%) Winds ( mph kmh ) Pressure ( in mb ) Visibility ( mi km ) Precip ( " mm )
12:53 am 00:53 Clear 77 25 72 22.2 85 85 Calm 29.96 1015 10 16 0.00 0.00
1:53 am 01:53 Cloudy 76 24.4 73 22.8 91 91 Calm 29.95 1014 10 16 0.00 0.00
2:53 am 02:53 Mostly Cloudy 76 24.4 72 22.2 88 88 WSW 3 6 29.94 1014 10 16 0.00 0.00
3:53 am 03:53 Clear 75 23.9 72 22.2 90 90 SSW 5 7 29.93 1014 10 16 0.00 0.00
4:53 am 04:53 Clear 75 23.9 72 22.2 90 90 S 3 6 29.94 1014 10 16 0.00 0.00
5:53 am 05:53 Clear 75 23.9 73 22.8 94 94 SW 3 6 29.96 1014 10 16 0.00 0.00
6:03 am 06:03 Partly Cloudy 75 23.9 73 22.8 94 94 WSW 3 6 29.96 1015 10 16 0.00 0.00
6:12 am 06:12 Mostly Cloudy 76 24.4 73 22.8 91 91 WSW 3 6 29.97 1015 10 16 0.00 0.00
6:53 am 06:53 Cloudy 77 25 73 22.8 88 88 SW 3 6 29.97 1015 10 16 0.00 0.00
7:22 am 07:22 Cloudy 77 25 73 22.8 88 88 SSW 3 6 29.98 1015 10 16 0.00 0.00
7:40 am 07:40 Cloudy 78 25.6 73 22.8 85 85 VRB 5 7 29.98 1015 10 16 0.00 0.00
7:50 am 07:50 Cloudy 79 26 73 23 84 84 WSW 6 9 29.98 1015 10 16 0.00 0.00
7:53 am 07:53 Cloudy 78 25.6 73 22.8 85 85 WSW 5 7 29.98 1015 10 16 0.00 0.00
8:42 am 08:42 Partly Cloudy 81 27.2 73 22.8 77 77 SW 6 9 29.97 1015 10 16 0.00 0.00
8:53 am 08:53 Mostly Sunny 82 27.8 73 22.8 74 74 SSW 7 11 29.97 1015 10 16 0.00 0.00
9:53 am 09:53 Cloudy 83 28.3 74 23.3 74 74 SSW 10 17 29.97 1015 10 16 0.00 0.00
10:02 am 10:02 Mostly Cloudy 83 28.3 74 23.3 74 74 SW 9 15 29.96 1015 10 16 0.00 0.00
10:31 am 10:31 Mostly Cloudy 83 28.3 74 23.3 74 74 SW 12 19 29.96 1015 10 16 0.00 0.00
11:32 am 11:32 Partly Cloudy 85 29.4 73 22.8 68 68 SW 12 19 29.95 1014 10 16 0.00 0.00
11:53 am 11:53 Mostly Cloudy 85 29.4 73 22.8 68 68 SW 9 15 29.95 1014 10 16 0.00 0.00
12:53 pm 12:53 Mostly Cloudy 86 30 73 22.8 65 65 SW 8 13 29.94 1014 10 16 0.00 0.00
1:53 pm 13:53 Mostly Cloudy 87 30.6 73 22.8 63 63 SW 8 13 29.92 1013 10 16 0.00 0.00
2:53 pm 14:53 Mostly Cloudy 87 30.6 73 22.8 63 63 SSW 10 17 29.90 1013 10 16 0.00 0.00
4:35 pm 16:35 Mostly Cloudy with Nearby Thunderstorms 87 30.6 73 22.8 63 63 W 8 13 29.86 1011 10 16 0.00 0.00
4:51 pm 16:51 Mostly Cloudy with Strong Thunderstorms 79 26 73 23 84 84 SSE 9 15 29.88 1012 10 16 0.01 0.25
4:53 pm 16:53 Mostly Cloudy with Strong Thunderstorms 79 26.1 74 23.3 85 85 VRB 5 7 29.88 1012 10 16 0.01 0.25
5:29 pm 17:29 Mostly Cloudy with Nearby Thunderstorms 77 25 73 22.8 88 88 S 3 6 29.88 1012 10 16 0.02 0.51
5:53 pm 17:53 Partly Cloudy with Nearby Thunderstorms 78 25.6 73 22.8 85 85 SSW 6 9 29.89 1012 10 16 0.02 0.51
6:09 pm 18:09 Mostly Cloudy with Thunderstorms 79 26.1 73 22.8 82 82 WNW 13 20 29.91 1013 10 16 0.00 0.00
6:28 pm 18:28 Mostly Cloudy with Strong Thunderstorms 75 23.9 73 22.8 94 94 Calm 29.91 1013 10 16 0.00 0.00
6:44 pm 18:44 Cloudy with Light Rain 75 23.9 73 22.8 94 94 WSW 6 9 29.90 1013 10 16 0.00 0.00
6:53 pm 18:53 Mostly Cloudy with Light Rain 75 23.9 72 22.2 90 90 NNW 3 6 29.90 1012 10 16 0.00 0.00
7:53 pm 19:53 Mostly Cloudy 75 23.9 72 22.2 90 90 SW 3 6 29.92 1013 10 16 0.00 0.00
8:53 pm 20:53 Cloudy 75 23.9 73 22.8 94 94 Calm 29.93 1014 10 16 0.00 0.00
9:24 pm 21:24 Mostly Cloudy 76 24.4 73 22.8 91 91 WNW 5 7 29.94 1014 10 16 0.00 0.00
9:53 pm 21:53 Partly Cloudy 75 23.9 73 22.8 94 94 W 5 7 29.93 1014 10 16 0.00 0.00
10:51 pm 22:51 Mostly Cloudy 75 24 72 22 89 89 W 6 9 29.93 1014 10 16 0.00 0.00
10:53 pm 22:53 Mostly Cloudy 75 23.9 72 22.2 90 90 WNW 5 7 29.93 1014 10 16 0.00 0.00
11:45 pm 23:45 Mostly Clear 74 23.3 72 22.2 94 94 WNW 6 9 29.93 1014 10 16 0.00 0.00
11:53 pm 23:53 Mostly Clear 74 23.3 72 22.2 94 94 NW 7 11 29.92 1013 10 16 0.00 0.00

Powered by AerisWeather